contact:dominique.lefevre@mio.osupytheas.fr, maurice.libes@osupytheas.fr
Project:EMSO Ligure-ouest http://www.emso-fr.org/EMSO-France
Sensor Aquadopp, line 13 Serial AQD14315 
DOI : "https://doi.org/10.17882/74513; https://doi.org/10.17882/83244" 
Title:EMSO Ligure Ouest : Data ligne ALBATROSS capteur AQUADOPP - deploiement 2021
Id,Date,Profondeur,Latitude,Longitude,X_East,Y_North,Z_Up,Amplitude_X,Amplitude_Y,Amplitude_Z,Batterie,SoundSpeed,Heading,Pitch,Roll,Pressure,Temperature,Speed,Direction
, , m, degrees North, degrees East, m.s-1, m.s-1,m.s-1, 1, 1, 1, Volt, m.s-1, degree, degree, degree, dbar, degree_C, m.s-1, degree
11,2022-05-19T21:30:00,2200.0,42.79,6.0312,-0.055,0.027,-0.008,64.0,67.0,68.0,11.8,1504.3,266.9,-0.9,0.4,2192.997,13.17,0.061,296.1
11,2022-05-19T22:00:00,2200.0,42.79,6.0312,-0.054,0.034,0.01,65.0,66.0,68.0,11.9,1504.3,265.9,-1.0,0.4,2192.952,13.17,0.063,302.2
11,2022-05-19T22:30:00,2200.0,42.79,6.0312,-0.047,0.028,0.014,64.0,68.0,69.0,11.9,1504.3,268.3,-0.8,0.1,2193.02,13.17,0.054,300.8
11,2022-05-19T23:00:00,2200.0,42.79,6.0312,-0.047,0.027,0.004,64.0,67.0,68.0,11.9,1504.3,263.4,-1.2,0.3,2193.007,13.17,0.054,299.9
11,2022-05-19T23:30:00,2200.0,42.79,6.0312,-0.038,0.025,0.009,65.0,67.0,69.0,11.9,1504.2,265.1,-0.8,0.5,2192.951,13.16,0.045,303.3
11,2022-05-20T00:00:00,2200.0,42.79,6.0312,-0.042,0.023,0.008,65.0,65.0,69.0,11.9,1504.2,266.0,-1.1,0.0,2192.966,13.16,0.047,298.7
11,2022-05-20T00:30:00,2200.0,42.79,6.0312,-0.041,0.019,-0.003,63.0,68.0,68.0,11.9,1504.3,265.3,-1.6,0.1,2192.959,13.17,0.045,294.9
11,2022-05-20T01:00:00,2200.0,42.79,6.0312,-0.042,0.021,0.016,64.0,68.0,70.0,11.9,1504.2,266.7,-1.7,0.1,2192.949,13.16,0.046,296.6
11,2022-05-20T01:30:00,2200.0,42.79,6.0312,-0.041,0.015,0.015,67.0,68.0,69.0,11.9,1504.2,264.9,-1.2,0.2,2192.931,13.16,0.043,290.1
11,2022-05-20T02:00:00,2200.0,42.79,6.0312,-0.05,0.019,0.009,63.0,67.0,70.0,11.9,1504.3,267.9,-1.0,0.3,2192.893,13.17,0.053,290.8
11,2022-05-20T02:30:00,2200.0,42.79,6.0312,-0.036,0.023,0.001,63.0,67.0,66.0,11.9,1504.2,270.2,-1.1,0.3,2192.903,13.16,0.042,302.6
11,2022-05-20T03:00:00,2200.0,42.79,6.0312,-0.042,0.01,0.01,65.0,68.0,67.0,11.9,1504.2,269.0,-1.5,0.1,2192.861,13.16,0.043,283.4
11,2022-05-20T03:30:00,2200.0,42.79,6.0312,-0.048,0.013,-0.007,65.0,68.0,70.0,11.9,1504.3,269.1,-1.2,0.3,2192.82,13.17,0.049,285.2
11,2022-05-20T04:00:00,2200.0,42.79,6.0312,-0.048,0.001,0.005,63.0,67.0,67.0,11.9,1504.3,269.4,-1.0,0.4,2192.86,13.17,0.048,271.2
11,2022-05-20T04:30:00,2200.0,42.79,6.0312,-0.046,0.0,-0.002,64.0,66.0,69.0,11.9,1504.2,272.2,-1.0,0.3,2192.788,13.16,0.046,270.0
11,2022-05-20T05:00:00,2200.0,42.79,6.0312,-0.031,-0.01,-0.008,63.0,66.0,65.0,11.9,1504.2,272.7,-0.9,0.3,2192.811,13.16,0.032,252.1
11,2022-05-20T05:30:00,2200.0,42.79,6.0312,-0.04,0.005,-0.01,62.0,63.0,62.0,11.9,1504.2,272.1,-0.7,0.1,2192.745,13.16,0.04,277.1
11,2022-05-20T06:00:00,2200.0,42.79,6.0312,-0.045,0.005,0.002,62.0,64.0,65.0,11.9,1504.2,271.2,-0.8,0.0,2192.792,13.16,0.045,276.3
11,2022-05-20T06:30:00,2200.0,42.79,6.0312,-0.043,-0.006,-0.01,63.0,64.0,64.0,11.9,1504.2,268.2,-1.2,0.4,2192.819,13.16,0.043,262.1
11,2022-05-20T07:00:00,2200.0,42.79,6.0312,-0.042,0.01,0.003,60.0,63.0,66.0,11.9,1504.2,269.4,-0.9,0.4,2192.807,13.16,0.043,283.4
11,2022-05-20T07:30:00,2200.0,42.79,6.0312,-0.057,0.009,0.004,60.0,65.0,64.0,11.9,1504.3,271.0,-0.6,0.1,2192.825,13.17,0.057,279.0
11,2022-05-20T08:00:00,2200.0,42.79,6.0312,-0.042,0.015,0.02,61.0,64.0,66.0,11.9,1504.3,267.0,-1.1,0.4,2192.883,13.17,0.044,289.6
11,2022-05-20T08:30:00,2200.0,42.79,6.0312,-0.041,0.007,-0.013,61.0,64.0,64.0,11.9,1504.3,269.1,-0.9,0.3,2192.83,13.17,0.041,279.7
11,2022-05-20T09:00:00,2200.0,42.79,6.0312,-0.039,-0.012,0.016,59.0,63.0,65.0,11.9,1504.2,263.3,-0.7,0.0,2192.845,13.16,0.04,252.9
11,2022-05-20T09:30:00,2200.0,42.79,6.0312,-0.044,0.013,0.006,59.0,63.0,63.0,11.9,1504.3,270.0,-0.9,0.2,2192.853,13.17,0.045,286.5
11,2022-05-20T10:00:00,2200.0,42.79,6.0312,-0.047,0.002,0.001,60.0,64.0,65.0,11.9,1504.2,266.5,-1.2,0.1,2192.888,13.16,0.047,272.4
11,2022-05-20T10:30:00,2200.0,42.79,6.0312,-0.046,0.009,0.011,59.0,62.0,64.0,11.9,1504.3,265.1,-1.0,0.2,2192.89,13.17,0.046,281.1
11,2022-05-20T11:00:00,2200.0,42.79,6.0312,-0.029,0.014,0.016,59.0,62.0,65.0,11.9,1504.3,269.4,-0.9,0.3,2192.856,13.17,0.032,295.8
11,2022-05-20T11:30:00,2200.0,42.79,6.0312,-0.034,0.007,0.004,57.0,60.0,62.0,11.9,1504.3,264.3,-0.8,0.1,2192.778,13.17,0.034,281.6
11,2022-05-20T12:00:00,2200.0,42.79,6.0312,-0.036,0.006,0.004,62.0,64.0,66.0,11.9,1504.3,265.9,-1.0,0.3,2192.822,13.17,0.036,279.5
11,2022-05-20T12:30:00,2200.0,42.79,6.0312,-0.036,0.005,0.011,59.0,63.0,64.0,11.9,1504.3,268.6,-0.8,0.1,2192.795,13.17,0.036,277.9
11,2022-05-20T13:00:00,2200.0,42.79,6.0312,-0.033,0.017,-0.013,56.0,62.0,62.0,11.9,1504.3,267.7,-0.8,0.3,2192.738,13.17,0.037,297.3
11,2022-05-20T13:30:00,2200.0,42.79,6.0312,-0.032,0.008,-0.016,59.0,61.0,62.0,11.9,1504.3,266.8,-1.1,0.1,2192.776,13.17,0.032,284.0
11,2022-05-20T14:00:00,2200.0,42.79,6.0312,-0.024,0.019,-0.006,59.0,60.0,65.0,11.9,1504.3,273.9,-1.3,0.3,2192.743,13.17,0.03,308.4
11,2022-05-20T14:30:00,2200.0,42.79,6.0312,-0.031,0.021,0.009,61.0,64.0,63.0,11.9,1504.3,266.6,-1.2,0.4,2192.748,13.17,0.037,304.1
11,2022-05-20T15:00:00,2200.0,42.79,6.0312,-0.022,0.016,0.016,59.0,62.0,64.0,11.9,1504.3,267.7,-1.2,0.1,2192.772,13.17,0.027,306.0
11,2022-05-20T15:30:00,2200.0,42.79,6.0312,-0.033,0.009,0.006,62.0,63.0,65.0,11.9,1504.3,268.2,-1.4,0.2,2192.717,13.17,0.034,285.3
11,2022-05-20T16:00:00,2200.0,42.79,6.0312,-0.032,0.01,0.008,59.0,63.0,64.0,11.9,1504.3,267.6,-1.0,0.2,2192.759,13.17,0.033,287.4
11,2022-05-20T16:30:00,2200.0,42.79,6.0312,-0.029,0.016,0.016,56.0,61.0,62.0,11.9,1504.3,268.8,-1.2,0.1,2192.71,13.17,0.033,298.9
11,2022-05-20T17:00:00,2200.0,42.79,6.0312,-0.031,0.001,0.005,63.0,63.0,65.0,11.8,1504.3,269.0,-1.1,0.4,2192.703,13.17,0.031,271.8
11,2022-05-20T17:30:00,2200.0,42.79,6.0312,-0.034,0.011,-0.006,60.0,64.0,65.0,11.9,1504.3,266.8,-1.5,0.5,2192.68,13.17,0.035,287.9
11,2022-05-20T18:00:00,2200.0,42.79,6.0312,-0.025,-0.002,0.007,60.0,68.0,61.0,11.9,1504.2,270.9,-1.2,0.4,2192.761,13.16,0.025,265.4
11,2022-05-20T18:30:00,2200.0,42.79,6.0312,-0.031,0.003,0.007,61.0,65.0,64.0,11.9,1504.3,274.0,-1.1,0.4,2192.726,13.17,0.031,275.5
11,2022-05-20T19:00:00,2200.0,42.79,6.0312,-0.022,0.014,0.004,62.0,63.0,65.0,11.8,1504.3,274.4,-1.0,0.4,2192.78,13.17,0.026,302.5
11,2022-05-20T19:30:00,2200.0,42.79,6.0312,-0.014,0.015,0.004,66.0,68.0,69.0,11.9,1504.3,273.9,-1.3,0.3,2192.775,13.17,0.02,317.0
11,2022-05-20T20:00:00,2200.0,42.79,6.0312,-0.023,0.001,0.011,64.0,67.0,66.0,11.9,1504.3,274.5,-1.1,0.3,2192.821,13.17,0.023,272.5
11,2022-05-20T20:30:00,2200.0,42.79,6.0312,-0.016,-0.001,0.014,64.0,67.0,68.0,11.8,1504.3,274.9,-1.2,0.4,2192.878,13.17,0.016,266.4
11,2022-05-20T21:00:00,2200.0,42.79,6.0312,-0.029,0.0,-0.006,67.0,70.0,71.0,11.9,1504.3,274.3,-1.1,0.3,2192.879,13.17,0.028,270.0
